Theta_e
285 287 288 287 287 289 288 289 287 296 295 299 301 304 305 304 309 310 311 324 327 328 329 332 334 337 339 340 341 341 340 343 343 344 345 345 346 348 350 348 345 345 345 346
284 288 288 287 289 290 291 292 292 295 295 302 305 309 316 317 319 314 310 313 326 328 329 331 334 336 339 340 341 342 340 340 344 345 346 345 345 344 345 348 350 350 347 346
278 286 286 284 289 293 296 296 297 292 298 303 312 314 312 314 319 320 321 313 319 327 330 332 335 336 338 340 342 342 342 342 343 345 346 347 348 347 346 344 345 348 349 349
278 284 281 292 300 299 296 295 296 297 304 311 314 314 313 311 314 320 325 323 325 329 332 334 336 336 338 341 342 342 342 343 344 345 345 347 348 348 349 349 347 345 346 348
278 282 290 296 296 295 292 293 296 295 298 305 314 318 314 309 310 315 325 332 328 332 333 335 336 337 337 338 340 342 342 343 345 346 346 346 346 348 350 351 350 349 349 348
285 281 287 292 296 300 300 288 297 296 295 298 313 302 303 308 311 313 323 337 333 331 332 332 334 336 335 336 338 340 343 345 347 348 348 348 348 348 351 352 352 353 352 353
282 285 291 294 298 302 291 289 297 297 296 297 300 303 307 309 309 312 318 322 337 342 341 334 335 336 334 335 336 340 344 346 348 349 349 351 352 353 352 352 353 354 355 356
285 286 286 296 298 292 295 298 297 297 298 297 301 305 306 307 308 310 311 317 323 331 337 343 338 335 334 335 338 339 343 345 347 349 351 351 351 352 354 353 353 353 354 355
286 286 294 297 297 297 299 298 298 298 300 299 299 302 304 305 306 310 312 315 320 322 328 333 345 346 344 344 343 343 340 341 343 348 350 352 352 352 352 354 353 353 353 353
288 292 295 297 300 302 301 301 302 301 301 302 300 301 302 305 305 307 310 312 317 319 320 321 326 334 341 344 345 347 346 346 347 345 344 347 352 353 353 352 352 352 352 352
289 294 297 298 300 301 302 303 303 303 303 303 302 303 302 304 305 306 308 310 313 314 314 316 320 322 326 334 343 342 342 345 348 349 347 349 349 346 351 354 345 352 353 354
289 295 295 296 300 302 301 301 303 303 304 305 304 302 305 304 306 306 307 309 311 312 313 314 316 317 321 325 332 338 340 342 342 347 350 348 344 335 305 306 303 302 305 324
295 299 300 301 302 303 302 303 304 304 305 305 305 304 305 305 305 308 308 308 309 310 311 313 314 316 320 323 325 328 331 337 341 339 347 345 341 338 338 320 302 300 301 302
300 300 298 300 299 303 304 304 306 306 307 307 306 306 305 305 306 305 307 308 308 309 309 310 311 312 317 321 321 323 327 317 334 341 344 346 343 340 340 338 338 334 304 304
298 300 299 300 301 301 303 303 301 303 304 304 305 305 305 304 304 305 306 308 308 308 308 309 309 310 314 319 319 320 324 330 335 338 340 336 344 343 339 338 338 336 327 311
299 299 299 298 298 298 299 299 300 302 304 305 305 305 306 305 305 306 307 307 306 306 307 309 310 312 316 319 319 320 324 323 324 336 339 340 342 342 340 338 337 334 331 333
297 295 297 297 297 298 297 298 298 298 301 304 305 306 306 307 307 307 308 310 310 310 311 312 311 314 315 315 317 319 321 327 328 336 338 339 340 342 340 338 337 334 334 329
298 301 300 299 297 298 298 298 298 298 297 300 302 303 302 302 304 305 305 306 307 308 308 309 311 313 313 315 317 318 320 324 330 334 337 338 339 343 341 338 335 333 330 321
300 299 298 299 299 299 299 298 298 298 298 298 298 298 299 300 301 303 305 303 303 303 304 309 313 314 314 315 317 319 320 322 326 333 335 327 331 337 339 335 332 331 330 324
299 300 300 299 299 298 297 298 299 299 299 297 297 296 296 297 299 300 301 300 301 303 305 306 308 312 313 313 315 316 319 323 325 329 332 332 331 330 328 317 327 328 328 326
299 299 299 299 298 299 300 300 299 298 299 299 296 295 295 297 298 298 297 298 301 304 304 306 306 309 310 310 309 309 312 314 319 322 320 318 314 311 310 309 308 309 309 309
299 299 299 299 298 297 298 299 299 299 297 298 298 296 295 295 296 297 299 298 301 303 303 303 304 307 308 308 305 303 304 303 302 302 301 302 302 302 301 301 301 301 301 301
297 299 299 299 298 297 298 297 297 298 298 297 297 298 296 296 296 294 294 299 301 302 302 302 304 305 304 303 304 303 301 301 300 299 298 297 296 296 296 296 296 297 296 296
296 298 298 299 299 298 296 296 297 298 299 299 299 300 300 298 298 300 300 300 301 301 301 302 302 302 302 301 301 300 300 299 298 298 297 296 296 296 295 295 294 294 295 294
291 291 292 296 294 293 293 295 296 292 293 296 297 299 301 302 300 301 301 300 300 300 300 301 301 301 299 298 298 299 299 298 298 298 297 297 296 295 295 294 294 293 293 293
289 288 289 290 290 290 291 290 290 291 292 293 294 296 297 299 300 300 300 299 299 300 300 300 299 299 298 298 297 297 297 297 298 298 298 297 296 295 294 294 293 292 292 292
289 290 289 290 289 290 290 290 291 291 291 292 293 294 296 297 297 297 297 298 298 299 299 299 299 298 298 297 297 297 297 296 295 296 296 296 297 297 296 295 294 293 293 292
Wind_Speed
18 21 14 14 18 18 6 9 5 6 10 10 11 11 9 6 5 6 9 11 17 19 19 19 17 18 18 18 18 18 18 17 18 16 14 13 13 14 13 13 13 13 12 11
17 14 17 16 17 16 18 19 12 15 12 4 5 3 8 6 4 8 12 17 20 22 22 21 21 21 20 19 19 18 17 18 16 15 15 15 14 13 12 13 14 13 13 14
7 3 7 6 18 13 6 9 5 6 1 6 2 6 7 9 9 11 12 12 19 22 22 22 22 20 22 20 18 18 18 17 16 15 16 15 14 13 13 14 12 14 13 12
5 3 4 4 6 14 17 13 14 11 14 4 7 6 6 11 11 13 14 12 14 16 19 21 21 19 15 18 18 18 16 14 14 15 14 13 13 13 12 12 13 12 12 13
3 2 5 6 7 6 6 8 15 13 15 11 6 2 5 16 16 12 13 11 6 11 8 11 16 16 17 16 16 16 16 16 16 16 15 14 14 14 13 12 12 13 13 13
3 4 7 6 13 6 5 7 15 14 14 13 4 7 6 17 14 14 13 11 6 9 8 11 11 15 16 16 16 17 18 16 14 14 15 15 15 15 13 12 12 10 12 14
7 5 1 14 16 4 6 1 11 13 11 11 9 2 5 11 15 12 12 17 13 13 10 5 12 15 14 14 17 12 11 12 12 13 14 14 12 12 12 12 11 11 12 12
3 7 2 18 6 8 3 2 9 9 9 9 9 9 10 13 16 20 19 20 18 15 13 10 7 9 9 9 6 10 12 13 14 14 12 11 14 12 13 12 12 12 12 11
1 3 8 10 5 6 4 5 5 6 8 8 9 11 11 12 14 15 17 17 16 15 16 16 15 11 11 4 5 7 8 10 9 10 11 12 12 11 10 11 11 10 9 9
4 4 9 3 8 8 6 8 5 5 7 7 8 10 9 10 11 12 13 15 14 18 19 17 15 14 11 9 8 8 7 5 5 7 7 6 7 8 9 9 9 9 9 10
4 6 6 7 10 9 11 9 8 4 6 10 10 10 6 7 9 8 9 10 12 13 13 13 12 12 12 11 7 8 6 4 4 4 5 6 6 5 8 7 7 9 9 8
3 10 6 8 12 15 11 8 8 8 9 9 9 9 9 6 5 5 7 7 9 10 12 11 10 9 10 10 9 7 5 4 3 2 1 3 4 4 5 1 2 2 4 4
8 14 8 11 13 13 8 7 6 7 7 10 8 7 8 7 6 7 6 7 7 6 6 7 8 8 6 6 7 7 5 3 2 2 0 2 3 3 4 1 4 2 5 8
15 12 11 14 10 14 13 12 10 8 8 7 6 5 5 6 6 7 7 7 7 7 7 7 7 9 8 7 6 5 5 5 3 2 1 1 3 5 4 5 4 4 1 0
17 15 13 14 17 17 14 14 12 10 11 11 9 8 6 6 7 5 5 5 6 6 7 8 9 10 8 8 8 6 4 3 3 4 3 3 2 3 4 5 5 4 2 2
12 12 14 17 17 18 18 19 16 14 10 10 11 9 9 6 5 5 5 5 5 6 8 8 8 10 11 10 10 8 6 8 5 4 4 4 3 4 4 5 6 5 5 4
10 16 16 14 15 16 18 15 15 14 14 11 12 11 10 10 7 8 8 8 6 6 7 8 10 10 11 11 11 8 7 7 7 5 4 4 3 6 6 6 6 6 6 6
6 7 10 12 14 14 15 16 15 16 16 17 15 15 14 13 11 10 9 9 8 8 7 11 11 13 13 13 12 9 8 8 7 7 4 4 5 5 7 6 6 6 5 4
6 7 8 9 9 8 8 11 13 14 14 14 14 14 13 13 13 10 8 10 9 8 10 12 19 14 9 10 14 8 9 10 8 6 5 5 5 5 6 6 6 6 7 7
4 4 3 3 5 6 7 8 8 10 12 14 14 15 15 14 12 11 9 7 9 7 11 12 11 8 7 9 11 7 8 8 7 6 5 4 3 1 2 4 3 4 6 6
3 3 2 3 4 5 4 4 6 7 8 10 13 13 13 14 13 12 13 10 16 17 14 18 13 9 6 8 7 6 8 8 7 5 5 6 7 8 8 8 8 8 8 7
3 2 1 3 3 4 4 4 4 4 5 8 9 13 15 16 15 12 13 12 8 17 11 11 13 23 13 15 8 10 9 10 9 8 8 8 8 8 8 8 7 7 9 9
5 4 3 4 3 3 5 4 4 4 6 8 9 10 10 8 9 12 11 15 10 17 12 12 25 29 26 13 12 13 14 14 12 11 10 10 11 11 8 9 10 9 10 11
0 3 3 3 3 2 5 5 5 4 5 3 5 4 3 4 4 5 8 13 20 18 14 18 24 31 25 13 14 15 14 13 13 11 11 13 11 11 11 10 11 13 10 13
3 3 3 1 3 3 4 5 5 5 4 3 5 3 3 3 3 2 4 5 14 12 12 21 26 26 13 12 13 13 13 13 13 11 11 10 10 12 11 10 11 11 11 11
3 3 2 2 1 1 2 3 2 3 3 2 2 3 3 3 3 3 2 6 8 9 8 8 10 11 11 12 12 13 12 11 12 11 10 9 10 9 9 9 9 8 10 7
3 2 3 3 3 3 2 3 3 4 4 3 2 3 3 3 2 3 3 5 5 6 6 5 6 9 8 9 9 8 8 9 11 8 8 8 7 7 8 7 6 6 7 6
Wind_Direction
261 270 275 267 275 287 266 245 230 251 218 234 220 230 246 216 283 263 226 192 196 196 192 192 182 182 181 186 186 184 185 190 195 193 192 193 192 197 193 189 203 206 204 209
275 253 248 262 261 261 256 252 246 260 264 325 317 336 356 3 309 259 233 221 204 200 188 184 185 180 179 181 183 181 186 192 190 189 190 193 193 192 191 196 204 204 207 209
258 294 315 272 235 227 93 32 306 237 274 311 347 40 15 347 340 309 297 223 206 194 185 184 182 174 181 175 172 181 186 190 189 189 193 196 194 188 195 199 199 211 212 210
274 290 179 167 132 89 100 52 21 360 350 316 136 148 43 13 349 338 325 273 196 191 184 188 177 174 156 167 174 182 186 184 186 188 191 190 191 194 197 198 202 205 211 213
252 231 285 170 27 38 56 44 17 354 351 338 281 246 10 359 359 338 322 294 207 177 171 167 165 162 156 163 169 174 183 185 185 185 186 186 194 194 198 200 204 209 210 212
267 248 202 57 344 331 120 40 357 355 354 346 57 66 328 343 352 350 345 0 20 119 120 129 144 151 151 162 169 182 186 187 184 183 187 191 195 196 200 204 212 212 215 215
232 261 268 344 317 239 77 27 333 339 344 349 58 143 307 340 13 15 17 22 32 54 74 108 152 149 155 163 186 178 166 170 177 185 190 193 191 194 196 201 206 209 215 219
199 222 217 352 338 69 78 5 321 323 331 348 360 3 8 20 19 19 18 25 28 47 51 55 62 126 140 165 161 158 165 176 183 187 189 191 192 193 194 197 204 209 211 219
262 336 324 308 340 77 29 285 325 305 322 341 2 7 353 14 19 24 25 25 27 41 51 46 52 71 76 25 132 143 156 178 185 188 193 194 194 196 194 198 206 211 211 219
325 347 348 310 82 23 351 316 312 301 304 353 3 359 357 5 20 24 25 27 25 35 40 38 31 41 42 33 46 86 102 131 154 165 181 189 189 194 197 201 206 213 213 219
243 3 5 222 351 346 331 308 306 303 345 9 360 1 360 2 9 15 24 24 29 33 36 30 23 31 25 20 28 64 74 87 108 139 183 191 184 193 203 206 211 211 220 215
343 331 290 276 300 311 307 296 298 326 349 7 5 345 350 6 2 11 18 18 30 27 29 15 14 15 16 17 21 32 50 42 70 81 168 199 182 187 81 29 323 269 259 243
357 345 341 314 290 308 304 312 308 321 329 337 346 344 344 335 342 345 2 21 29 23 13 3 2 360 357 1 4 15 12 335 27 64 136 168 174 186 224 238 39 358 263 247
9 348 14 10 9 3 356 339 325 319 315 327 329 322 316 320 327 338 333 342 347 352 348 351 347 335 332 341 351 354 341 326 325 326 344 221 201 212 209 225 218 211 100 258
11 15 22 26 27 19 4 1 9 5 344 339 341 336 342 342 316 307 312 325 338 329 326 336 330 315 324 325 320 315 311 304 306 308 301 279 265 232 223 218 224 212 172 211
12 15 20 36 40 31 24 17 13 6 345 338 325 335 335 337 322 337 359 358 355 323 311 312 310 309 320 320 314 310 305 281 281 303 309 309 283 254 245 236 224 210 207 197
26 21 15 23 23 39 33 24 18 13 4 356 350 8 22 15 24 11 355 350 340 338 332 343 326 319 318 312 306 303 294 284 258 261 254 270 265 262 253 234 231 221 216 190
12 29 27 22 26 28 38 36 28 20 17 10 14 20 23 20 20 14 13 3 2 346 345 334 322 318 310 305 296 290 278 273 266 262 250 251 258 249 250 230 221 210 187 162
38 27 25 35 29 23 23 40 42 36 25 23 23 24 19 15 10 6 360 15 9 359 355 338 334 331 301 296 301 281 268 268 270 268 256 242 243 246 244 227 213 198 177 168
66 57 49 14 354 6 5 354 23 45 38 31 27 25 23 13 11 9 352 16 9 358 5 349 344 332 320 317 317 296 283 263 252 251 255 254 248 280 338 348 262 208 175 156
128 124 78 9 349 347 349 333 334 25 45 48 38 28 27 15 6 1 12 6 4 9 9 6 358 356 353 4 10 4 6 17 35 62 85 90 81 71 69 59 53 42 33 44
223 258 322 345 18 357 348 354 5 351 24 62 62 45 33 21 9 7 17 11 353 13 14 21 9 17 21 36 46 43 37 42 41 38 51 52 63 66 71 70 61 69 72 58
201 200 230 273 300 321 327 337 0 354 8 26 56 68 52 34 19 13 8 358 5 23 27 28 24 28 30 25 36 45 44 46 45 48 51 64 65 65 56 67 74 57 61 70
66 222 227 269 301 318 308 300 330 345 324 347 26 58 85 52 25 10 345 356 13 22 30 34 30 26 28 29 39 44 45 45 47 47 51 50 66 66 66 55 62 74 59 68
41 11 8 266 311 317 321 326 341 357 24 16 307 312 0 41 69 17 360 1 17 26 29 32 40 35 29 28 32 36 45 44 44 42 44 47 52 62 62 64 62 62 68 56
75 61 20 352 354 57 45 28 28 0 15 34 325 350 354 21 18 51 33 35 45 39 48 39 33 40 41 35 42 45 43 40 43 34 38 42 50 53 62 55 59 64 67 59
54 67 36 43 42 31 44 44 37 11 1 1 348 356 7 19 7 30 101 69 60 62 56 49 52 57 54 48 45 44 51 56 55 48 39 34 36 42 49 51 57 56 61 56